sat.trackr.live / text

‹ back to catalog

HULIANWANG DIGUI-27

NORAD 63694 · 2025-086H

PAYLOAD ACTIVE UNKNOWN

§ Identity

Operator
Country
PRC
Launch date
2025-04-28
Launch site
WSC
Launch vehicle
Mass (kg)
RCS (m²)

External: N2YO · Heavens-Above · Gunter

§ Orbital elements

Epoch: 2026-05-25T04:28:34.870080Z

Period
108.73 min
Inclination
86.5023°
Eccentricity
0.0001450
Mean motion
13.24409593 rev/d
Perigee alt
1,166.8 km
Apogee alt
1,169.0 km
Semi-major
7,546.1 km
B*
1.0791e-4
RAAN
320.8284°
Arg perigee
80.1958°
Mean anomaly
279.9340°
Rev number
5,181

§ Raw data

HULIANWANG DIGUI-271 63694U 25086H   26145.18651470  .00000061  00000+0  10791-3 0  99962 63694  86.5023 320.8284 0001450  80.1958 279.9340 13.24409593 51811

JSON: /api/v1/satellites/63694 · /tle

For live sub-satellite position, see the globe view (requires WebGL).

§ Visibility from observer

Set your observer location to see the next 7 days of passes ≥ 10°. The values pass through the URL so the page stays shareable.

No JS? Fill the form by hand. The geolocation button needs JavaScript.